Location: Arran
(51.9410°N, 101.7372°W)
Time: 22:34:01
(UTC+00:00)

BlueWalker 3 - Visible Passes

Search period start: 26 November 2022 00:00
Search period end: 06 December 2022 00:00
Orbit: 500 x 519 km, 53.2° (Epoch: 26 November)

Date Brightness Start Highest point End Pass type
(mag) Time Alt. Az. Time Alt. Az. Time Alt. Az.
26 Nov 2.8 00:24:53 10° SW 00:28:30 36° SSE 00:29:50 27° ESE visible
26 Nov 4.2 02:03:03 10° WSW 02:04:40 23° W 02:04:40 23° W visible
27 Nov 2.8 00:06:30 10° SW 00:10:10 38° SSE 00:12:18 21° E visible
27 Nov 3.5 01:44:44 10° WSW 01:47:08 35° W 01:47:08 35° W visible
27 Nov 2.8 23:48:09 10° SW 23:51:49 40° SSE 23:54:44 15° E visible
28 Nov 2.6 01:26:25 10° W 01:29:33 55° W 01:29:33 55° W visible
28 Nov 2.7 23:29:46 10° SW 23:33:29 41° SSE 23:37:07 10° ENE visible
29 Nov 1.9 01:08:06 10° W 01:11:57 80° NNW 01:11:57 80° NNW visible
29 Nov 2.7 23:11:24 10° SW 23:15:08 43° SSE 23:18:51 10° ENE visible
30 Nov 1.9 00:49:46 10° W 00:53:42 80° N 00:54:19 60° ENE visible
30 Nov 5.1 02:28:36 10° WNW 02:29:09 14° WNW 02:29:09 14° WNW visible
01 Dec 1.9 00:31:25 10° W 00:35:21 79° N 00:36:41 40° ENE visible
01 Dec 4.6 02:10:16 10° WNW 02:11:31 20° WNW 02:11:31 20° WNW visible
02 Dec 1.9 00:13:05 10° W 00:17:01 78° N 00:19:03 27° ENE visible
02 Dec 3.9 01:51:55 10° WNW 01:53:52 28° WNW 01:53:52 28° WNW visible
02 Dec 2.0 23:54:43 10° W 23:58:40 77° N 00:01:25 19° ENE visible
03 Dec 3.1 01:33:33 10° WNW 01:36:14 42° WNW 01:36:14 42° WNW visible
03 Dec 2.0 23:36:22 10° W 23:40:19 76° N 23:43:48 13° ENE visible
04 Dec 2.2 01:15:12 10° WNW 01:18:37 67° WNW 01:18:37 67° WNW visible
04 Dec 2.0 23:18:00 10° W 23:21:57 75° N 23:25:51 10° E visible
05 Dec 1.8 00:56:50 10° WNW 01:00:45 88° NNE 01:01:03 76° E visible
05 Dec 5.3 02:35:39 10° W 02:35:53 11° W 02:35:53 11° W visible
